GW2742 Weather Reports


time (UTC)temp
C
wind
direction
speed
KPH
gust
KPH
rain 1hr
cm
rain 24hr
cm
rain mn
cm
humidity
%
barometer
mb
20260906141558 15 217 1.6 4.8 0.00 0.00 0.00 73 1017.4
20260906141024 15 217 1.6 3.2 0.00 0.00 0.00 74 1017.5
20260906140523 14 218 0.0 3.2 0.00 0.00 0.00 76 1017.5
20260906140042 13 0 0.0 3.2 0.00 0.00 0.00 78 1017.4
20260906135525 13 0 0.0 3.2 0.00 0.00 0.00 78 1017.5
20260906135024 13 218 0.0 3.2 0.00 0.00 0.00 79 1017.4
20260906134548 12 0 0.0 0.0 0.00 0.00 0.00 81 1017.4
20260906134024 12 0 0.0 3.2 0.00 0.00 0.00 82 1017.6
20260906133525 12 0 0.0 3.2 0.00 0.00 0.00 82 1017.5
20260906133051 11 218 0.0 3.2 0.00 0.00 0.00 81 1017.4
20260906132526 11 0 0.0 1.6 0.00 0.00 0.00 81 1017.5
20260906132027 11 0 0.0 1.6 0.00 0.00 0.00 80 1017.5
20260906131605 11 0 0.0 3.2 0.00 0.00 0.00 80 1017.4
20260906131025 11 0 0.0 3.2 0.00 0.00 0.00 80 1017.2
20260906130525 11 0 0.0 3.2 0.00 0.00 0.00 79 1017.2
20260906130054 12 0 0.0 0.0 0.00 0.00 0.00 79 1017.3
20260906125524 12 0 0.0 4.8 0.00 0.00 0.00 78 1017.4
20260906125027 12 0 0.0 4.8 0.00 0.00 0.00 78 1017.4
20260906124551 12 215 1.6 4.8 0.00 0.00 0.00 78 1017.5
20260906124027 12 215 1.6 4.8 0.00 0.00 0.00 78 1017.2
20260906123524 12 215 1.6 4.8 0.00 0.00 0.00 78 1017.3
20260906123045 12 216 0.0 3.2 0.00 0.00 0.00 77 1017.1
20260906122528 12 0 0.0 3.2 0.00 0.00 0.00 77 1017.1
20260906122025 12 216 1.6 3.2 0.00 0.00 0.00 77 1017.1
20260906121544 12 216 0.0 3.2 0.00 0.00 0.00 76 1017.1
20260906121029 12 0 0.0 3.2 0.00 0.00 0.00 76 1017.1
20260906120527 13 0 0.0 3.2 0.00 0.00 0.00 75 1017.0
20260906120051 13 215 0.0 3.2 0.00 0.00 0.00 75 1017.0
20260906115527 13 0 0.0 0.0 0.00 0.00 0.00 75 1017.1
20260906115025 13 0 0.0 0.0 0.00 0.00 0.00 74 1017.0
20260906114550 13 0 0.0 0.0 0.00 0.00 0.00 74 1017.2
20260906114027 13 0 0.0 0.0 0.00 0.00 0.00 73 1016.9
20260906113527 13 0 0.0 0.0 0.00 0.00 0.00 72 1017.0
20260906113047 13 0 0.0 0.0 0.00 0.00 0.00 72 1017.1
20260906112528 13 0 0.0 0.0 0.00 0.00 0.00 72 1017.1
20260906112025 13 0 0.0 0.0 0.00 0.00 0.00 71 1017.0
20260906111546 14 0 0.0 0.0 0.00 0.00 0.00 70 1016.9
20260906111027 14 0 0.0 0.0 0.00 0.00 0.00 70 1017.0
20260906110527 14 0 0.0 0.0 0.00 0.00 0.00 69 1016.9
20260906110049 14 0 0.0 3.2 0.00 0.00 0.00 69 1017.1
20260906105524 15 0 0.0 4.8 0.00 0.00 0.00 69 1017.2
20260906105024 15 0 1.6 4.8 0.00 0.00 0.00 69 1017.0
20260906104550 15 242 3.2 4.8 0.00 0.00 0.00 68 1017.0
20260906104028 15 0 0.0 4.8 0.00 0.00 0.00 67 1016.8
20260906103525 15 0 0.0 4.8 0.00 0.00 0.00 67 1016.9
20260906103048 15 211 1.6 6.4 0.00 0.00 0.00 67 1016.9
20260906102528 15 206 1.6 6.4 0.00 0.00 0.00 67 1016.9
20260906102027 15 211 1.6 4.8 0.00 0.00 0.00 67 1016.7
20260906101544 15 0 1.6 4.8 0.00 0.00 0.00 65 1016.7
20260906101025 15 129 1.6 4.8 0.00 0.00 0.00 65 1016.7
20260906100528 15 128 1.6 4.8 0.00 0.00 0.00 66 1016.6
20260906100051 15 124 1.6 4.8 0.00 0.00 0.00 67 1016.4
20260906095527 15 0 0.0 4.8 0.00 0.00 0.00 66 1016.4
20260906095027 15 328 0.0 4.8 0.00 0.00 0.00 67 1016.4
20260906094556 15 146 0.0 4.8 0.00 0.00 0.00 67 1016.4
20260906094028 15 150 1.6 4.8 0.00 0.00 0.00 67 1016.4
20260906093529 15 0 0.0 6.4 0.00 0.00 0.00 68 1016.4
20260906093048 15 0 0.0 6.4 0.00 0.00 0.00 68 1016.4
20260906092531 15 0 1.6 4.8 0.00 0.00 0.00 67 1016.3
20260906092024 15 339 0.0 3.2 0.00 0.00 0.00 67 1016.3
20260906091551 15 0 0.0 6.4 0.00 0.00 0.00 68 1016.4
20260906091027 15 0 1.6 6.4 0.00 0.00 0.00 68 1016.5
20260906090525 15 210 3.2 6.4 0.00 0.00 0.00 68 1016.7
20260906090053 15 209 3.2 6.4 0.00 0.00 0.00 69 1016.7
20260906085528 15 204 1.6 6.4 0.00 0.00 0.00 68 1016.6
20260906085025 15 199 3.2 6.4 0.00 0.00 0.00 65 1016.5
20260906084545 16 162 1.6 4.8 0.00 0.00 0.00 64 1016.4
20260906084034 15 0 1.6 4.8 0.00 0.00 0.00 65 1016.4
20260906083527 15 122 1.6 6.4 0.00 0.00 0.00 66 1016.1
20260906083053 15 134 0.0 6.4 0.00 0.00 0.00 66 1016.0
20260906082528 15 203 0.0 4.8 0.00 0.00 0.00 66 1016.0
20260906082025 15 134 0.0 3.2 0.00 0.00 0.00 66 1016.0
20260906081547 15 133 0.0 3.2 0.00 0.00 0.00 64 1016.0
20260906081027 15 0 1.6 6.4 0.00 0.00 0.00 64 1016.1
20260906080526 16 156 1.6 6.4 0.00 0.00 0.00 63 1016.0
20260906080048 16 156 3.2 6.4 0.00 0.00 0.00 62 1016.0
20260906075525 16 198 3.2 4.8 0.00 0.00 0.00 62 1016.0
20260906075024 16 188 0.0 3.2 0.00 0.00 0.00 62 1016.2
20260906074546 16 0 0.0 3.2 0.00 0.00 0.00 62 1015.9
20260906074027 16 193 0.0 4.8 0.00 0.00 0.00 63 1016.1
20260906073528 16 0 0.0 6.4 0.00 0.00 0.00 62 1016.1
20260906073052 16 234 1.6 9.7 0.00 0.00 0.00 61 1016.1
20260906072531 16 236 3.2 9.7 0.00 0.00 0.00 60 1016.1
20260906072027 16 260 0.0 6.4 0.00 0.00 0.00 60 1016.0
20260906071548 16 261 1.6 6.4 0.00 0.00 0.00 60 1016.1
20260906071025 16 221 1.6 4.8 0.00 0.00 0.00 61 1016.2
20260906070528 16 206 0.0 4.8 0.00 0.00 0.00 60 1016.0
20260906070045 16 205 1.6 4.8 0.00 0.00 0.00 59 1015.9
20260906065525 16 196 1.6 4.8 0.00 0.00 0.00 59 1015.8
20260906065025 17 197 1.6 4.8 0.00 0.00 0.00 59 1015.8
20260906064549 17 184 1.6 6.4 0.00 0.00 0.00 58 1016.0
20260906064023 17 234 1.6 6.4 0.00 0.00 0.00 58 1016.0
20260906063523 17 221 1.6 4.8 0.00 0.00 0.00 57 1015.8
20260906063050 17 229 0.0 3.2 0.00 0.00 0.00 57 1015.8
20260906062527 17 0 1.6 4.8 0.00 0.00 0.00 56 1015.8
20260906062024 17 207 0.0 4.8 0.00 0.00 0.00 56 1015.8
20260906061549 17 207 0.0 8.0 0.00 0.00 0.00 55 1015.8
20260906061025 18 0 0.0 8.0 0.00 0.00 0.00 55 1016.1
20260906060524 18 138 0.0 4.8 0.00 0.00 0.00 54 1015.8
20260906060054 18 143 0.0 4.8 0.00 0.00 0.00 53 1015.8
20260906055523 19 143 1.6 4.8 0.00 0.00 0.00 51 1015.8
20260906055024 19 340 0.0 8.0 0.00 0.00 0.00 51 1015.7
20260906054546 20 0 3.2 8.0 0.00 0.00 0.00 50 1015.7
20260906054025 20 337 1.6 14.5 0.00 0.00 0.00 50 1015.8
20260906053524 20 335 3.2 14.5 0.00 0.00 0.00 50 1015.7
20260906053043 19 293 4.8 11.3 0.00 0.00 0.00 50 1015.7
20260906052524 19 337 3.2 11.3 0.00 0.00 0.00 51 1015.7
20260906052026 19 264 3.2 9.7 0.00 0.00 0.00 51 1015.7
20260906051543 18 360 0.0 4.8 0.00 0.00 0.00 51 1015.7
20260906051025 18 106 0.0 8.0 0.00 0.00 0.00 51 1015.8
20260906050527 18 359 0.0 8.0 0.00 0.00 0.00 51 1015.8
20260906050045 18 342 1.6 6.4 0.00 0.00 0.00 52 1015.8
20260906045524 18 174 1.6 6.4 0.00 0.00 0.00 51 1015.9
20260906045024 18 152 3.2 6.4 0.00 0.00 0.00 52 1015.8
20260906044550 18 160 3.2 8.0 0.00 0.00 0.00 52 1015.7
20260906044024 19 174 3.2 8.0 0.00 0.00 0.00 53 1015.7
20260906043529 19 153 3.2 6.4 0.00 0.00 0.00 51 1015.8
20260906043044 18 68 1.6 6.4 0.00 0.00 0.00 52 1015.7
20260906042525 19 0 0.0 4.8 0.00 0.00 0.00 52 1015.6
20260906042025 19 191 0.0 3.2 0.00 0.00 0.00 51 1015.5
20260906041544 19 0 0.0 4.8 0.00 0.00 0.00 51 1015.6
20260906041023 20 166 1.6 9.7 0.00 0.00 0.00 50 1015.5
20260906040523 20 166 4.8 9.7 0.00 0.00 0.00 50 1015.6
20260906040048 20 148 3.2 4.8 0.00 0.00 0.00 49 1015.5
20260906035526 20 0 0.0 4.8 0.00 0.00 0.00 48 1015.4
20260906035025 19 183 1.6 4.8 0.00 0.00 0.00 48 1015.4
20260906034558 20 259 0.0 6.4 0.00 0.00 0.00 50 1015.5
20260906034024 20 262 0.0 6.4 0.00 0.00 0.00 49 1015.5
20260906033524 20 164 3.2 6.4 0.00 0.00 0.00 47 1015.5
20260906033045 20 0 0.0 4.8 0.00 0.00 0.00 47 1015.4
20260906032527 21 0 1.6 4.8 0.00 0.00 0.00 47 1015.4
20260906032024 21 124 1.6 4.8 0.00 0.00 0.00 47 1015.4
20260906031553 21 124 1.6 4.8 0.00 0.00 0.00 45 1015.2
20260906031027 21 0 0.0 6.4 0.00 0.00 0.00 44 1015.1
20260906030527 21 125 0.0 8.0 0.00 0.00 0.00 44 1015.1
20260906030052 21 101 3.2 8.0 0.00 0.00 0.00 44 1015.0
20260906025528 21 115 0.0 4.8 0.00 0.00 0.00 44 1014.8
20260906025027 21 110 1.6 4.8 0.00 0.00 0.00 45 1014.7
20260906024547 21 219 1.6 6.4 0.00 0.00 0.00 45 1014.7
20260906024027 21 0 0.0 6.4 0.00 0.00 0.00 45 1014.5
20260906023528 21 0 1.6 6.4 0.00 0.00 0.00 45 1014.6
20260906023046 21 0 0.0 4.8 0.00 0.00 0.00 45 1014.5
20260906022523 22 238 0.0 8.0 0.00 0.00 0.00 44 1014.6
20260906022025 22 292 1.6 8.0 0.00 0.00 0.00 43 1014.6
20260906021600 22 0 1.6 4.8 0.00 0.00 0.00 43 1014.4
20260906021025 22 245 0.0 4.8 0.00 0.00 0.00 43 1014.3
20260906020527 22 178 0.0 6.4 0.00 0.00 0.00 43 1014.3
20260906020048 22 178 1.6 6.4 0.00 0.00 0.00 42 1014.5
20260906015524 22 282 1.6 6.4 0.00 0.00 0.00 42 1014.3
20260906015027 23 0 1.6 6.4 0.00 0.00 0.00 42 1014.3
20260906014549 23 239 0.0 3.2 0.00 0.00 0.00 42 1014.4
20260906014025 23 134 0.0 3.2 0.00 0.00 0.00 41 1014.4
20260906013524 23 0 0.0 3.2 0.00 0.00 0.00 41 1014.3
20260906013049 24 0 0.0 3.2 0.00 0.00 0.00 41 1014.3
20260906012529 25 0 0.0 3.2 0.00 0.00 0.00 39 1014.4
20260906012026 25 6 0.0 9.7 0.00 0.00 0.00 39 1014.3
20260906011546 25 0 1.6 9.7 0.00 0.00 0.00 39 1014.3
20260906011023 25 0 0.0 3.2 0.00 0.00 0.00 39 1014.4
20260906010525 26 358 0.0 3.2 0.00 0.00 0.00 36 1014.3
20260906010059 26 0 0.0 6.4 0.00 0.00 0.00 38 1014.3
20260906005524 26 0 0.0 8.0 0.00 0.00 0.00 37 1014.2
20260906005024 26 278 0.0 8.0 0.00 0.00 0.00 37 1014.2
20260906004611 26 0 3.2 9.7 0.00 0.00 0.00 37 1014.2
20260906004029 26 329 3.2 9.7 0.00 0.00 0.00 35 1014.3
20260906003528 26 1 3.2 9.7 0.00 0.00 0.00 35 1014.2
20260906003047 26 307 3.2 9.7 0.00 0.00 0.00 35 1014.2
20260906002528 26 349 3.2 9.7 0.00 0.00 0.00 34 1014.2
20260906002024 27 339 1.6 9.7 0.00 0.00 0.00 37 1014.2
20260906001559 27 336 4.8 9.7 0.00 0.00 0.00 35 1014.2
20260906001023 27 345 4.8 8.0 0.00 0.00 0.00 35 1014.2
20260906000527 27 320 3.2 8.0 0.00 0.00 0.00 33 1014.3
20260906000044 28 319 3.2 8.0 0.00 0.00 0.00 34 1014.3
20260905235524 28 0 3.2 8.0 0.00 0.00 0.00 34 1014.3
20260905235025 28 44 1.6 8.0 0.00 0.00 0.00 31 1014.3
20260905234552 28 331 3.2 8.0 0.00 0.00 0.00 34 1014.4
20260905234027 28 31 1.6 6.4 0.00 0.00 0.00 32 1014.4
20260905233528 28 0 1.6 4.8 0.00 0.00 0.00 30 1014.4
20260905233044 29 291 1.6 4.8 0.00 0.00 0.00 30 1014.4
20260905232530 29 0 0.0 3.2 0.00 0.00 0.00 32 1014.4
20260905232026 29 0 0.0 6.4 0.00 0.00 0.00 36 1014.4
20260905231544 28 127 0.0 6.4 0.00 0.00 0.00 28 1014.5
20260905231028 29 113 1.6 4.8 0.00 0.00 0.00 30 1014.5
20260905230524 29 0 1.6 4.8 0.00 0.00 0.00 31 1014.5
20260905230052 28 0 0.0 3.2 0.00 0.00 0.00 35 1014.6
20260905225535 28 0 0.0 4.8 0.00 0.00 0.00 28 1014.6
20260905225027 28 0 0.0 4.8 0.00 0.00 0.00 34 1014.7
20260905224543 28 308 1.6 6.4 0.00 0.00 0.00 30 1014.9
20260905224025 28 0 0.0 8.0 0.00 0.00 0.00 31 1014.9
20260905223524 28 121 3.2 8.0 0.00 0.00 0.00 31 1014.9
20260905223050 28 57 0.0 8.0 0.00 0.00 0.00 31 1015.0
20260905222523 28 160 1.6 8.0 0.00 0.00 0.00 33 1015.1
20260905222026 28 75 1.6 8.0 0.00 0.00 0.00 37 1015.1
20260905221544 28 21 3.2 6.4 0.00 0.00 0.00 30 1015.2
20260905221025 28 60 3.2 6.4 0.00 0.00 0.00 31 1015.1
20260905220524 28 46 0.0 6.4 0.00 0.00 0.00 30 1015.3
20260905220045 28 68 3.2 6.4 0.00 0.00 0.00 30 1015.3
20260905215524 27 0 0.0 8.0 0.00 0.00 0.00 30 1015.2
20260905215023 27 119 3.2 8.0 0.00 0.00 0.00 31 1015.4
20260905214550 27 79 3.2 9.7 0.00 0.00 0.00 29 1015.5
20260905214027 27 94 3.2 9.7 0.00 0.00 0.00 33 1015.5
20260905213528 27 263 0.0 8.0 0.00 0.00 0.00 35 1015.5
20260905213048 27 32 1.6 8.0 0.00 0.00 0.00 32 1015.6
20260905212526 27 0 3.2 8.0 0.00 0.00 0.00 33 1015.7
20260905212025 27 92 3.2 8.0 0.00 0.00 0.00 32 1015.7
20260905211547 27 134 3.2 11.3 0.00 0.00 0.00 31 1015.6
20260905211026 27 97 3.2 11.3 0.00 0.00 0.00 31 1015.7
20260905210526 27 79 4.8 9.7 0.00 0.00 0.00 35 1015.8
20260905210110 27 74 3.2 11.3 0.00 0.00 0.00 35 1015.7
20260905205523 27 113 4.8 11.3 0.00 0.00 0.00 33 1015.8
20260905205024 26 115 4.8 9.7 0.00 0.00 0.00 31 1015.8
20260905204547 27 72 4.8 9.7 0.00 0.00 0.00 32 1015.9
20260905204026 27 134 3.2 9.7 0.00 0.00 0.00 34 1015.9
20260905203529 26 53 3.2 9.7 0.00 0.00 0.00 32 1015.9
20260905203046 26 150 3.2 6.4 0.00 0.00 0.00 36 1015.9
20260905202525 26 304 1.6 8.0 0.00 0.00 0.00 32 1016.0
20260905202025 26 324 1.6 8.0 0.00 0.00 0.00 39 1015.9
20260905201544 26 148 1.6 6.4 0.00 0.00 0.00 33 1016.0
20260905201023 26 217 1.6 6.4 0.00 0.00 0.00 33 1016.1
20260905200523 26 0 1.6 8.0 0.00 0.00 0.00 33 1016.2
20260905200109 26 255 1.6 9.7 0.00 0.00 0.00 34 1016.2
20260905195523 26 322 3.2 9.7 0.00 0.00 0.00 33 1016.2
20260905195024 26 94 3.2 11.3 0.00 0.00 0.00 35 1016.2
20260905194552 26 291 1.6 11.3 0.00 0.00 0.00 34 1016.3
20260905194024 26 63 1.6 9.7 0.00 0.00 0.00 41 1016.3
20260905193525 26 58 0.0 6.4 0.00 0.00 0.00 34 1016.3
20260905193045 25 207 1.6 6.4 0.00 0.00 0.00 39 1016.3
20260905192524 25 53 1.6 6.4 0.00 0.00 0.00 34 1016.5
20260905192025 25 330 1.6 12.9 0.00 0.00 0.00 41 1016.5
20260905191543 25 320 1.6 12.9 0.00 0.00 0.00 34 1016.6
20260905191026 25 57 3.2 11.3 0.00 0.00 0.00 38 1016.6
20260905190525 25 32 0.0 8.0 0.00 0.00 0.00 34 1016.5
20260905190044 25 171 1.6 6.4 0.00 0.00 0.00 35 1016.6
20260905185524 25 0 1.6 9.7 0.00 0.00 0.00 42 1016.7
20260905185024 25 325 4.8 9.7 0.00 0.00 0.00 42 1016.6
20260905184609 25 258 1.6 6.4 0.00 0.00 0.00 38 1016.8
20260905184024 25 8 1.6 4.8 0.00 0.00 0.00 40 1017.0
20260905183526 24 39 0.0 8.0 0.00 0.00 0.00 37 1017.0
20260905183046 24 227 1.6 8.0 0.00 0.00 0.00 36 1017.1
20260905182525 24 37 1.6 11.3 0.00 0.00 0.00 40 1017.1
20260905182028 23 40 3.2 11.3 0.00 0.00 0.00 36 1017.2
20260905181555 23 33 3.2 9.7 0.00 0.00 0.00 37 1017.2
20260905181025 23 1 4.8 9.7 0.00 0.00 0.00 44 1017.3
20260905180526 23 0 1.6 8.0 0.00 0.00 0.00 44 1017.4
20260905180051 23 344 1.6 11.3 0.00 0.00 0.00 43 1017.5
20260905175526 23 327 3.2 11.3 0.00 0.00 0.00 39 1017.6
20260905175024 23 1 1.6 11.3 0.00 0.00 0.00 42 1017.6
20260905174545 23 15 1.6 9.7 0.00 0.00 0.00 42 1017.7
20260905174024 23 25 3.2 9.7 0.00 0.00 0.00 38 1017.7
20260905173525 23 329 1.6 8.0 0.00 0.00 0.00 37 1017.6
20260905173054 23 350 3.2 8.0 0.00 0.00 0.00 38 1017.7
20260905172525 23 131 1.6 6.4 0.00 0.00 0.00 38 1017.7
20260905172025 23 8 3.2 6.4 0.00 0.00 0.00 38 1017.7
20260905171550 22 7 1.6 6.4 0.00 0.00 0.00 36 1017.8
20260905171027 22 310 1.6 8.0 0.00 0.00 0.00 38 1017.7
20260905170527 22 0 0.0 8.0 0.00 0.00 0.00 42 1017.7
20260905170044 22 333 3.2 8.0 0.00 0.00 0.00 39 1017.7
20260905165526 22 25 1.6 11.3 0.00 0.00 0.00 41 1017.7
20260905165028 22 0 3.2 11.3 0.00 0.00 0.00 40 1017.8
20260905164546 22 79 4.8 11.3 0.00 0.00 0.00 39 1017.7
20260905164027 22 322 1.6 8.0 0.00 0.00 0.00 39 1017.7
20260905163524 21 0 0.0 8.0 0.00 0.00 0.00 41 1017.7
20260905163051 21 84 1.6 9.7 0.00 0.00 0.00 41 1017.8
20260905162523 21 346 3.2 11.3 0.00 0.00 0.00 41 1017.6
20260905162022 21 359 4.8 11.3 0.00 0.00 0.00 43 1017.7
20260905161546 21 288 3.2 9.7 0.00 0.00 0.00 43 1017.7
20260905161028 21 0 1.6 9.7 0.00 0.00 0.00 43 1017.7
20260905160524 21 314 1.6 9.7 0.00 0.00 0.00 45 1017.7
20260905160045 21 334 3.2 8.0 0.00 0.00 0.00 41 1017.7
20260905155526 21 348 1.6 8.0 0.00 0.00 0.00 43 1017.6
20260905155023 21 0 1.6 9.7 0.00 0.00 0.00 43 1017.7
20260905154559 21 48 1.6 9.7 0.00 0.00 0.00 43 1017.6
20260905154028 21 349 1.6 9.7 0.00 0.00 0.00 43 1017.6
20260905153528 20 354 1.6 8.0 0.00 0.00 0.00 47 1017.6
20260905153045 20 310 0.0 8.0 0.00 0.00 0.00 50 1017.5
20260905152528 20 0 0.0 6.4 0.00 0.00 0.00 49 1017.4
20260905152025 19 359 1.6 6.4 0.00 0.00 0.00 46 1017.4
20260905151606 19 0 0.0 4.8 0.00 0.00 0.00 49 1017.5
20260905151028 18 252 1.6 4.8 0.00 0.00 0.00 51 1017.5
20260905150527 18 252 1.6 4.8 0.00 0.00 0.00 53 1017.5
20260905150054 18 226 1.6 4.8 0.00 0.00 0.00 56 1017.5
20260905145526 17 226 1.6 4.8 0.00 0.00 0.00 54 1017.5
20260905145027 17 213 0.0 6.4 0.00 0.00 0.00 57 1017.5
20260905144549 17 0 1.6 6.4 0.00 0.00 0.00 57 1017.4
20260905144026 16 0 0.0 4.8 0.00 0.00 0.00 57 1017.5
20260905143525 16 259 1.6 4.8 0.00 0.00 0.00 57 1017.4
20260905143045 15 262 0.0 3.2 0.00 0.00 0.00 60 1017.4
20260905142530 15 0 0.0 3.2 0.00 0.00 0.00 63 1017.4
20260905142027 15 0 0.0 3.2 0.00 0.00 0.00 64 1017.3